Flag for Kazakhstan Weather past 2 weeks in Qyzylorda, Kazakhstan

Now
81 °F

Passing clouds.


Feels Like: 79 °F
Forecast: 55 / 83 °F
Wind: 6 mph from North

Location: Kzyl-Orda

Current Time: Aug 28, 2015 at 2:20:12 PM

Latest Report: Aug 28, 2015 at 2:00 PM


Visibility: N/A

Pressure: 30.12 "Hg

Humidity: 15%

Dew point: 28 °F

Location of QyzylordaLocation

Historic Weather in Qyzylorda — Graph

°F

Qyzylorda temperature yesterday

Maximum temperature yesterday: 79 °F (at 4:00 PM)
Minimum temperature yesterday: 48 °F (at 5:30 AM)
Average temperature yesterday: 65 °F

Past Weeks' High & Low Weather Summary

 TemperatureHumidityPressure
High109 °F (Aug 18, 4:00 PM)87% (Aug 26, 7:30 AM)30.15 "Hg (Aug 26, 7:30 AM)
Low45 °F (Aug 26, 7:00 AM)5% (Aug 18, 5:00 PM)29.65 "Hg (Aug 18, 7:00 PM)
Average74 °F29%29.88 "Hg
* Reported Aug 13 1:00 PM — Aug 28 1:00 PM, Qyzylorda, Weather by CustomWeather, © 2015

Note: Actual official high and low records may vary slightly from our data, if they occured in-between our weather recording intervals... More about our weather records

Advertising

Qyzylorda weather history for previous 24 hours

 ConditionsComfort  
Time TempWeatherWind HumidityBarometerVisibility
1:00 PM
Fri, Aug 28
79 °FSunny.8 mph18%30.12 "Hg10 mi
12:30 PM77 °FSunny.10 mph21%30.12 "Hg10 mi
12:00 PM75 °FSunny.8 mph24%30.15 "Hg10 mi
11:30 AM75 °FSunny.6 mph24%30.15 "Hg10 mi
11:00 AM72 °FPassing clouds.3 mph25%30.12 "HgN/A
10:30 AM70 °FPassing clouds.3 mph27%30.12 "HgN/A
10:00 AM64 °FSunny.1 mph32%30.12 "Hg10 mi
9:30 AM63 °FSunny.1 mph32%30.12 "Hg10 mi
9:00 AM59 °FSunny.3 mph34%30.12 "Hg10 mi
8:30 AM57 °FSunny.3 mph39%30.12 "Hg10 mi
8:00 AM52 °FSunny.3 mph44%30.09 "Hg10 mi
7:30 AM50 °FClear.3 mph47%30.09 "Hg10 mi
7:00 AM50 °FClear.6 mph47%30.09 "Hg10 mi
6:00 AM52 °FClear.3 mph44%30.09 "Hg10 mi
5:00 AM52 °FClear.6 mph41%30.09 "Hg10 mi
4:00 AM55 °FClear.6 mph36%30.09 "Hg10 mi
3:00 AM57 °FClear.6 mph33%30.09 "Hg10 mi
2:00 AM57 °FClear.8 mph36%30.09 "Hg10 mi
1:00 AM55 °FClear.6 mph51%30.09 "Hg10 mi
12:00 AM57 °FClear.6 mph44%30.09 "Hg10 mi
11:30 PM
Thu, Aug 27
55 °FClear.6 mph47%30.09 "Hg10 mi
11:00 PM57 °FClear.6 mph44%30.09 "Hg10 mi
10:30 PM59 °FClear.6 mph42%30.09 "Hg10 mi
10:00 PM59 °FClear.3 mph42%30.09 "Hg10 mi
9:30 PM61 °FClear.6 mph36%30.07 "Hg10 mi
9:00 PM66 °FSunny.6 mph30%30.07 "Hg10 mi
8:30 PM68 °FSunny.6 mph26%30.07 "Hg10 mi
8:00 PM73 °FSunny.8 mph22%30.07 "Hg10 mi
7:30 PM75 °FSunny.10 mph21%30.07 "Hg10 mi
7:00 PM77 °FPassing clouds.10 mph19%30.07 "HgN/A
6:30 PM77 °FPassing clouds.8 mph21%30.07 "HgN/A
6:00 PM77 °FPassing clouds.8 mph21%30.04 "HgN/A
5:30 PM79 °FPassing clouds.8 mph18%30.04 "HgN/A
5:00 PM77 °FPassing clouds.8 mph18%30.04 "HgN/A
4:30 PM79 °FPassing clouds.6 mph18%30.04 "HgN/A
4:00 PM79 °FSunny.3 mph17%30.04 "Hg10 mi
3:30 PM77 °FPassing clouds.6 mph19%30.04 "HgN/A
3:00 PM77 °FSunny.3 mph21%30.04 "Hg10 mi
2:30 PM77 °FSunny.1 mph21%30.07 "Hg10 mi
2:00 PM77 °FPassing clouds.6 mph21%30.07 "HgN/A
Weather by CustomWeather, © 2015

See weather overviewHow to use our weather pages